Regional Weather Roundup
Issued by NWS Charleston, SC

Current Version | Previous Version | Graphics & Text | Print | Product List | Glossary On
Versions: 1 2 3 4 5 6 7 8 9 10 11 12 13 14 15 16 17 18 19 20 21 22 23 24 25 26 27 28 29 30 31 32 33 34 35 36 37 38 39 40 41 42 43 44 45 46 47 48 49 50
000 ASUS42 KCHS 230310 RWRCHS REGIONAL WEATHER ROUNDUP NATIONAL WEATHER SERVICE CHARLESTON SC 1100 PM EDT MON SEP 22 2014 NOTE: "FAIR" INDICATES FEW OR NO CLOUDS BELOW 12,000 FEET WITH NO SIGNIFICANT WEATHER AND/OR OBSTRUCTIONS TO VISIBILITY. NOT ALL STATIONS ARE QUALITY CONTROLLED BY THE NATIONAL WEATHER SERVICE. USE DATA WITH CAUTION...ESPECIALLY DEWPOINT OBSERVATIONS. SCZ027-030-031-034>040-042>050-230400- ...SOUTH CAROLINA... CITY SKY/WX TMP DP RH WIND PRES REMARKS N CHARLESTON CLOUDY 69 66 90 NW7 30.11R WATERFRONT PRK NOT AVBL FORT JOHNSON NOT AVBL MOUNT PLEASANT FAIR 70 68 94 NW7 30.10R JOHNS ISLAND PTCLDY 70 70 100 NW3 30.10R PINOPOLIS N/A 70 66 88 N10 30.01R MONCKS CORNER N/A 70 70 100 N3 30.10S SUMMERVILLE DRIZZLE 68 68 100 N5 30.13R BEAUFORT MCAS CLOUDY 68 64 87 MISG 30.12R BEAUFORT ARPT CLOUDY 70 66 88 NW14G21 30.11R HILTON HEAD IS CLOUDY 72 64 78 N12G22 30.11S GEORGETOWN NOT AVBL WALTERBORO RAIN 68 N/A N/A W5 30.14R ORANGEBURG RAIN 65 61 87 E6 30.12R BARNWELL CLOUDY 64 64 100 CALM 30.13S AIKEN MOCLDY 64 64 100 NE3 30.15F MANNING MOCLDY 66 N/A N/A N5 30.12S KINGSTREE NOT AVBL COLUMBIA LGT RAIN 67 62 84 CALM 30.14R SUMTER DRIZZLE 64 63 94 E2 30.12R FLORENCE LGT RAIN 67 63 87 VRB3 30.13R MYRTLE BEACH NOT AVBL N MYRTLE BEACH CLOUDY 68 65 90 N5 30.09S $$ GAZ063-065-086>088-099>101-113>116-118-119-134-136>141-150-230400- ...GEORGIA... CITY SKY/WX TMP DP RH WIND PRES REMARKS SAVANNAH ARPT CLOUDY 69 64 84 N3 30.09F HUNTER AAF MOCLDY 69 66 90 NE13 30.07S FORT STEWART CLOUDY 68 64 88 NE7 30.07S STATESBORO NOT AVBL SYLVANIA RAIN 70 69 98 E3 30.11S CLAXTON FAIR 70 70 100 E6 30.08F THOMSON MOCLDY 65 65 100 E3 30.16S AUGUSTA-BUSH CLOUDY 65 63 93 NE5 30.10F AUGUSTA-DANIEL CLOUDY 67 62 84 NE7 30.11F SWAINSBORO CLOUDY 68 68 100 NE3 30.09R VIDALIA TSTM 66 64 94 E6 30.07S ALMA CLOUDY 71 65 81 VRB3 30.06R WAYCROSS LGT RAIN 76 69 78 SE7 30.06R JESUP FAIR 72 68 88 E7 30.07S BRUNSWICK MOCLDY 75 64 69 NE10 30.05F SAINT SIMONS CLOUDY 75 69 81 NE12G20 30.03F THUNDER $$ SCZ027-028-034-036>038-045-046-048>050-GAZ119-141-230400- ...LAKE AND SUPPLEMENTAL COASTAL OBSERVATIONS... STATION/POSITION TIME TEMP WIND PRES WAVE SWELL AIR SEA DIR/SP/G HT/PER HT/PER/DIR (UTC) (F) (DEG/KT/KT) (MB) (FT/S) (FT/S/D) UPR LAKE MARION NOT AVBL WINYAH BAY 0200 68 360/ 6 1018.0S LAKE MURRAY 0200 69 70/ 4/ 10 1019.3R ACE BASIN NERRS 0200 67 CALM 1019.0R FORT PULASKI 0300 71 340/ 14/ 18 1019.2F SAPELO ISLAND 0200 75 60/ 7 1018.0S $$ ANZ835-935-AMZ111-154-330-350-352-354-374-450-454-472-230400- ...C-MAN AND BUOY OBSERVATIONS... STATION/POSITION TIME TEMP WIND PRES WAVE SWELL AIR SEA DIR/SP/G HT/PER HT/PER/DIR (UTC) (F) (DEG/KT/KT) (MB) (FT/S) (FT/S/D) FOLLY BEACH CMAN 0200 74 20/ 8/ 10 1018.7R BUOY 41004 0300 78 82 30/ 16/ 17 1017.2F 3/ 4 2/ 8 BUOY 41008 0300 78 83 30/ 17/ 21 1017.3R 3/ 4 2/100/ 8 5E ST. MARYS GA 0300 83 N/A 3/ 4 FRYING PAN BUOY NOT AVBL BUOY 41025 0300 74 10/ 14/ 19 1019.1R 4/ 7 2/120/ 7 CAPE LOOKOUT NC 0200 73 20/ 8/ 10 1018.9R BUOY 41002 0245 80 81 200/ 2/ 4 1019.4R 4/ 7 3/140/ 7 BUOY 41010 0300 80 84 240/ 4/ 6 1017.4R 3/ 9 3/ 40/ 9 BUOY 41012 NOT AVBL ST AUGUSTINE FL 0300 75 160/ 3/ 4 1017.2F CAPERS NEARSHORE 0200 74 40/ 8/ 10 N/A FRIPP NEARSHORE NOT AVBL $$

USA.gov is the U.S. government's official web portal to all federal, state and local government web resources and services.